Location: ???????
(55.4362°N, 38.1183°E)
Time: 13:32:46
(UTC+00:00)

Cosmos 372 Rocket - Pass Details

Date: 24 October 2021
Orbit: 738 x 768 km, 74.1° (Epoch: 04 December)

Event Time Altitude Azimuth Distance (km) Brightness Sun altitude
Rises 16:11:17 0° 268° (W) 3,176 8.9 -18.3°
Reaches altitude 10° 16:14:30 10° 289° (WNW) 2,254 7.6 -18.7°
Maximum altitude 16:17:44 17° 329° (NNW) 1,837 6.4 -19.2°
Drops below altitude 10° 16:21:00 10° 9° (N) 2,261 6.4 -19.7°
Enters shadow 16:23:41 - 27° (NNE) 3,015 6.9 -20.0°
